Location: Drawsko Pomorskie
(53.5317°N, 15.8111°E)
Time: 04:52:41
(UTC+01:00)

ISS - Pass Details

Date: 30 January 2019
Orbit: 403 x 411 km, 51.6° (Epoch: 21 February)

Event Time Altitude Azimuth Distance (km) Brightness Sun altitude
Rises 17:23:55 0° 241° (WSW) 2,328 2.2 -7.5°
Reaches altitude 10° 17:26:03 10° 234° (SW) 1,471 0.4 -7.8°
Maximum altitude 17:29:12 42° 162° (SSE) 599 -3.0 -8.2°
Enters shadow 17:32:13 11° 91° (E) 1,428 -1.7 -8.6°
